Wind_Speed
5 3 1 4 5 5 4 5 2 5 5 2 7 2 8 7 8 4 12 11 18 18 17 13 13 15 15 13 14 13 12 11 11 11 10 8 7 5 4 4 4 5 3 4 4 4 6 6 5
3 2 3 2 5 6 5 5 8 8 7 8 8 5 3 8 7 9 16 15 20 17 18 14 13 14 14 12 12 12 11 11 9 8 8 7 6 6 5 5 4 5 5 6 6 5 5 6 7
3 3 4 3 2 3 6 8 6 6 5 4 4 3 3 4 4 13 16 22 19 17 16 15 14 12 13 12 11 9 9 9 8 7 7 6 6 6 6 6 5 6 5 6 5 5 4 5 6
3 4 2 4 6 6 6 9 6 7 6 2 4 7 7 7 7 8 19 20 18 16 15 15 14 13 12 12 10 9 7 8 7 7 7 7 7 7 6 6 7 6 5 6 5 4 4 4 5
3 3 2 7 7 7 5 4 0 4 3 4 2 5 7 7 8 17 20 18 17 16 14 13 13 12 11 12 9 8 7 7 7 8 7 8 8 7 7 6 6 6 6 5 5 4 3 4 4
3 3 4 8 6 4 4 1 2 2 4 6 5 8 7 9 14 16 19 16 16 14 13 11 12 11 10 10 8 7 8 8 7 8 8 8 7 7 8 7 5 5 5 4 3 3 3 2 2
4 4 6 6 5 5 4 2 2 2 6 6 5 5 7 11 15 18 18 14 13 13 11 12 11 11 9 9 9 8 8 9 9 9 9 9 7 6 7 6 6 5 3 3 3 3 3 3 2
3 4 4 4 5 3 5 3 2 2 6 6 2 4 9 16 17 17 17 15 13 12 12 12 11 11 10 8 8 10 10 9 9 11 8 7 7 6 5 5 4 4 4 5 5 4 4 4 3
2 4 4 7 5 4 6 5 7 1 7 3 3 5 14 22 20 18 17 14 14 13 13 13 12 11 9 9 11 12 11 10 11 10 7 6 5 5 3 7 6 6 6 5 6 6 6 7 6
4 4 7 6 4 2 5 2 4 4 6 5 6 8 19 24 21 20 18 17 17 14 13 12 12 10 9 9 11 13 11 9 8 9 6 5 4 5 5 5 7 5 5 6 7 9 8 8 11
1 5 6 2 5 4 5 7 4 8 9 4 6 13 19 21 20 19 17 17 17 15 12 11 11 10 10 9 11 12 10 8 7 7 9 5 5 4 4 4 5 5 6 4 3 6 8 8 9
4 2 5 5 1 3 5 3 1 5 7 4 9 16 19 17 17 17 16 17 15 15 13 12 12 11 10 9 11 13 11 9 8 9 7 6 6 5 3 4 4 5 4 8 7 2 6 7 8
5 3 2 1 3 3 3 6 2 7 6 9 14 15 16 15 15 14 16 15 13 14 14 12 11 11 10 9 9 12 12 10 9 9 8 7 5 4 4 4 4 4 3 3 5 5 7 9 7
2 4 0 2 3 4 7 6 4 6 8 12 14 14 14 14 15 13 13 15 15 13 13 13 12 11 10 10 10 12 10 11 9 8 7 6 5 4 4 4 4 4 3 4 5 5 5 4 5
2 7 2 5 5 3 7 9 10 2 12 13 13 12 13 12 14 14 14 13 13 15 13 14 13 12 11 11 11 10 11 11 9 8 7 6 5 5 4 5 4 3 3 4 4 6 5 6 5
5 4 6 5 6 4 8 3 7 6 12 14 13 12 12 13 14 12 12 12 14 14 15 14 14 13 13 12 12 10 13 10 8 7 7 6 6 6 5 4 3 2 3 3 4 6 5 4 5
4 7 7 2 7 2 10 2 9 11 12 12 12 12 12 12 12 14 13 13 13 15 16 15 14 14 14 11 10 11 10 10 9 8 7 6 7 7 7 5 3 1 1 2 2 4 6 4 5
9 11 8 5 3 8 8 10 8 14 14 14 13 12 12 13 13 15 15 14 14 15 17 16 15 14 14 12 10 11 9 10 9 9 8 7 7 8 7 7 5 3 4 3 2 4 3 5 5
10 11 10 3 1 6 9 11 9 12 14 15 15 14 14 12 7 14 16 16 16 16 17 18 17 15 16 15 14 12 11 10 10 10 8 8 6 8 7 6 6 5 5 5 4 4 3 2 1
10 10 3 5 0 5 9 13 12 15 18 17 17 15 15 12 14 12 17 19 19 18 18 19 18 17 17 15 14 11 10 9 10 10 9 9 8 8 8 7 6 5 7 5 4 5 5 2 2
11 5 7 4 1 7 9 13 7 14 17 18 18 16 17 15 14 12 18 20 20 20 20 20 20 19 17 15 14 11 7 7 10 10 9 8 8 9 8 7 6 5 5 6 4 5 5 5 2
10 4 4 2 7 4 2 4 3 5 8 16 19 19 18 17 16 16 19 21 21 20 19 20 21 20 18 17 15 14 11 8 8 8 10 7 10 9 7 7 6 6 7 5 4 4 4 5 2
3 4 3 4 7 7 7 5 7 3 5 8 13 19 20 17 17 16 18 21 19 18 18 20 21 22 20 19 16 15 14 11 9 9 7 8 8 7 8 8 7 7 6 4 5 3 4 4 4
1 7 6 5 6 5 3 4 4 4 5 2 3 12 18 17 16 16 20 19 18 18 17 18 21 22 22 21 19 16 15 12 11 11 8 9 8 9 11 9 7 6 6 5 5 5 5 5 5
9 12 6 4 5 3 6 3 7 5 4 6 4 11 16 16 17 15 15 18 18 19 18 18 20 21 22 22 20 17 17 15 12 11 11 8 9 9 9 9 10 9 7 6 6 6 6 6 6
14 13 9 4 5 6 6 2 3 4 6 2 2 9 14 16 15 15 15 18 19 20 19 18 20 20 22 22 21 18 17 17 16 14 13 11 10 9 6 9 9 9 8 7 7 7 7 7 7
8 10 9 10 9 8 2 3 6 3 4 3 7 11 13 15 13 13 15 19 21 21 21 20 19 20 20 22 22 21 19 19 18 16 14 14 12 11 8 8 8 8 9 9 8 7 7 8 7
14 6 8 9 6 8 7 4 8 4 5 5 8 11 13 14 15 12 13 17 19 20 20 19 19 18 19 20 21 22 21 20 20 18 17 16 15 12 11 10 9 10 11 10 11 9 7 10 9
6 11 10 8 5 6 5 4 6 3 6 8 7 10 13 14 14 14 12 15 17 18 20 20 20 19 19 20 20 20 21 21 20 21 20 19 17 15 13 12 12 10 10 9 10 11 11 11 11
11 8 11 9 12 7 9 7 4 3 5 8 10 8 11 12 13 12 14 17 17 18 19 20 19 20 20 19 19 20 19 19 20 21 21 20 19 18 17 16 14 13 13 13 12 14 14 14 14
Wind_Direction
131 150 236 243 245 241 131 99 98 113 101 73 102 56 54 30 9 43 136 136 148 145 151 148 146 130 120 118 119 116 114 114 121 126 131 133 130 131 126 113 105 99 98 110 116 114 106 113 119
174 203 239 262 264 203 121 107 95 74 89 106 119 122 78 77 55 112 139 153 149 150 153 154 146 132 131 132 119 125 129 128 126 134 131 131 130 121 119 118 122 119 112 108 105 103 99 100 99
168 242 272 303 303 305 129 101 95 87 105 155 113 44 28 53 78 139 132 147 145 142 149 150 147 140 135 132 122 117 121 127 141 137 133 139 132 130 122 121 121 118 115 113 109 106 93 92 96
221 198 194 329 2 89 127 99 89 115 107 118 118 85 94 71 124 144 143 148 147 146 148 160 150 151 141 133 124 124 119 126 132 122 141 137 133 134 126 130 117 113 121 127 124 118 102 97 105
246 246 320 73 87 114 137 98 72 151 118 127 182 110 94 79 120 136 144 152 148 148 151 153 150 149 142 136 138 144 131 137 134 138 133 129 125 128 122 125 122 123 129 139 123 113 101 96 101
249 278 18 33 90 143 159 155 295 178 152 131 133 120 91 114 142 145 148 154 157 152 156 160 163 154 150 143 146 150 145 153 149 139 141 136 142 131 135 133 129 139 141 149 134 133 113 114 103
323 315 16 5 52 173 185 170 113 209 150 123 129 123 113 137 140 147 148 157 157 164 157 157 160 158 159 148 154 154 143 147 144 144 132 134 135 130 137 135 131 146 160 165 173 175 143 130 122
309 290 337 6 356 87 153 127 154 196 88 109 217 137 156 144 154 150 149 159 159 161 166 157 160 163 163 163 160 158 152 146 153 149 137 143 141 142 157 149 160 167 178 191 208 219 211 199 182
289 268 339 356 334 67 150 168 180 28 143 101 85 71 124 149 154 153 153 154 166 169 169 164 166 168 176 167 163 156 152 147 145 154 155 132 159 151 168 192 199 185 190 218 235 248 236 231 216
287 307 2 347 339 358 163 166 149 154 143 140 139 117 137 153 163 164 162 170 174 174 178 179 171 173 174 164 162 155 154 150 162 160 155 167 164 168 170 190 202 203 217 239 257 255 255 250 236
33 330 331 352 311 284 189 133 215 198 187 147 165 152 156 163 173 174 168 175 177 175 183 191 179 178 174 169 169 158 154 160 166 174 163 170 169 175 192 196 196 202 228 222 246 275 259 270 262
284 322 317 350 299 190 199 68 343 222 66 62 120 157 159 168 178 179 172 178 181 189 181 187 185 176 181 174 168 164 160 169 172 175 164 175 182 179 185 204 200 210 212 247 236 248 288 275 274
309 354 332 353 159 210 190 195 168 187 114 114 128 153 160 171 181 178 178 174 192 191 181 187 185 179 181 176 168 166 165 171 172 173 183 184 184 186 191 189 198 209 210 242 219 240 254 264 268
12 322 261 203 189 218 227 197 261 180 142 137 146 155 163 172 175 177 180 183 198 195 184 180 186 187 185 181 177 164 168 174 174 182 191 205 198 201 195 200 212 224 227 241 239 229 244 244 254
295 296 251 200 210 209 215 241 224 343 169 157 161 166 167 175 174 184 191 197 188 196 187 183 188 190 190 183 178 174 177 164 186 196 209 219 218 214 219 210 214 233 229 233 233 229 229 242 229
282 253 318 122 190 174 223 139 166 170 205 172 176 175 182 183 187 191 188 186 192 195 182 186 187 186 184 181 181 187 176 181 195 205 207 207 213 216 207 206 215 210 198 217 235 221 220 224 223
184 324 339 327 206 198 220 229 160 181 192 188 185 190 194 191 199 193 194 191 178 190 184 190 185 185 185 186 189 186 186 196 202 205 203 208 214 221 216 218 238 241 226 241 265 249 238 243 249
333 322 329 337 158 230 242 244 170 191 197 203 205 207 203 203 200 196 197 193 185 184 189 192 188 184 187 188 193 192 197 207 207 208 208 219 226 217 215 229 239 263 271 281 266 252 242 266 251
307 310 309 5 23 251 254 262 242 200 213 211 214 217 212 210 195 194 197 193 188 189 191 192 192 181 183 190 194 195 201 209 212 211 217 218 224 216 216 233 238 248 262 277 291 258 244 258 252
284 299 352 120 86 234 275 271 252 226 215 220 212 219 220 193 193 197 192 193 194 192 194 195 195 187 188 194 194 199 206 207 211 215 216 221 232 212 212 228 245 254 267 263 269 276 282 255 256
265 287 360 342 283 233 282 258 240 227 223 217 225 220 220 214 193 187 195 195 196 191 196 194 195 191 190 194 191 190 194 219 213 220 215 226 215 195 200 224 245 249 255 268 254 260 267 285 241
284 26 287 279 279 348 321 323 155 186 212 223 218 221 219 206 219 195 191 194 196 194 194 193 193 192 192 194 200 201 206 207 211 220 224 225 201 197 211 227 234 230 258 278 249 259 262 258 237
13 303 291 309 280 315 141 262 110 196 215 199 214 216 215 208 207 193 188 190 192 189 190 191 192 193 193 197 208 206 213 202 198 215 221 225 210 214 230 228 239 239 253 265 261 261 239 234 280
260 237 232 223 249 173 86 334 278 41 352 309 208 204 195 201 194 189 184 182 186 184 187 189 192 196 198 198 205 209 206 208 208 205 215 224 222 222 229 229 234 243 238 255 242 233 229 252 254
227 248 249 249 217 89 120 308 322 338 344 326 237 179 180 191 180 180 178 183 181 184 187 189 191 196 196 198 201 207 206 205 213 223 224 236 233 233 228 226 230 237 231 234 220 222 220 241 245
209 267 292 282 287 356 138 256 359 313 304 19 138 166 170 177 175 180 178 185 186 187 189 192 192 197 197 200 205 206 212 215 218 219 227 234 243 241 239 248 218 224 230 226 223 225 223 230 245
192 235 290 294 232 255 74 20 128 94 123 108 117 155 164 171 180 186 176 180 187 188 191 193 193 198 201 203 205 207 210 218 221 222 224 234 246 251 253 241 210 220 226 226 230 237 240 233 241
256 332 221 216 269 261 132 264 57 137 142 126 149 156 165 172 182 191 185 185 187 188 191 197 197 198 202 206 208 211 215 218 223 226 230 235 238 242 246 249 248 226 231 227 229 240 248 242 240
175 224 236 300 304 300 225 130 40 77 160 156 151 162 163 171 181 183 195 187 184 187 189 195 198 198 202 205 210 213 216 221 226 229 233 236 239 237 238 239 242 251 243 230 235 236 235 238 242
264 261 219 232 188 240 313 314 88 117 171 171 162 169 157 169 173 180 180 182 185 188 190 195 197 201 207 207 208 213 217 221 227 231 234 236 236 236 234 236 241 241 248 250 244 239 245 226 234
Height
784 785 784 781 788 774 789 789 773 779 779 771 772 777 783 783 791 811 802 807 809 813 817 821 821 820 822 824 825 828 830 832 833 834 835 836 837 837 838 839 839 839 839 839 840 841 842 843 844
785 785 783 776 788 787 795 778 783 778 777 772 776 778 781 793 790 798 803 809 812 815 817 821 822 823 824 826 827 829 831 833 834 835 837 837 837 838 839 840 840 840 840 841 841 841 843 844 844
785 784 778 780 785 789 798 781 782 778 775 776 780 776 781 793 797 798 801 809 813 815 818 821 823 824 825 827 828 830 832 833 835 836 837 837 838 839 840 840 841 841 842 842 843 843 843 845 845
785 783 779 786 795 788 789 782 780 781 778 776 775 787 788 795 797 799 805 810 814 817 819 822 824 825 826 828 830 832 833 834 835 837 838 838 840 841 841 841 842 842 843 843 843 844 844 845 846
783 776 782 790 796 788 782 779 778 779 780 778 777 792 794 798 801 803 807 812 815 817 821 824 825 826 828 829 832 833 835 835 836 838 839 840 841 842 842 843 843 843 844 844 845 845 846 846 847
777 777 787 795 794 787 781 779 779 782 780 781 782 787 795 800 803 805 809 812 816 820 821 825 826 828 829 831 833 834 835 836 838 839 839 840 841 842 843 844 845 846 846 846 846 847 847 847 847
783 782 792 789 792 792 784 777 789 779 779 781 777 788 796 799 804 806 810 814 817 821 822 826 828 828 831 832 834 836 836 837 838 840 841 840 842 843 844 846 847 848 848 848 847 848 847 847 846
776 780 789 785 793 796 783 784 785 777 784 778 777 787 798 798 805 808 811 815 819 823 825 826 829 830 832 833 835 836 837 838 840 840 842 842 843 844 845 846 847 848 849 849 848 848 848 848 848
776 787 791 790 790 790 782 785 781 781 778 780 781 782 785 799 805 808 811 817 821 824 825 825 829 831 832 833 835 837 838 840 840 841 842 843 844 845 846 846 847 847 847 849 849 850 850 850 850
779 790 791 783 781 786 782 781 782 786 785 785 786 788 792 799 804 807 809 816 818 822 824 824 827 829 832 834 835 838 840 840 841 842 844 845 846 846 847 847 847 848 848 849 850 850 850 850 848
780 792 783 781 783 781 780 785 781 782 782 775 781 788 793 798 802 804 808 812 816 820 824 825 828 830 832 834 835 837 840 841 842 842 843 846 846 847 847 847 848 849 848 849 849 849 848 848 848
789 783 784 783 784 783 784 784 789 776 778 773 777 786 791 795 799 803 806 811 817 819 822 826 828 830 832 833 835 836 839 841 842 843 845 846 846 847 847 847 847 848 848 848 849 849 847 848 848
782 781 781 784 785 783 783 787 788 779 776 778 783 788 790 793 797 801 804 810 817 818 821 825 828 830 832 834 834 836 838 840 841 844 846 846 845 846 847 847 847 847 848 848 849 849 847 847 847
780 779 782 783 783 782 787 784 783 779 776 781 784 787 790 792 796 800 805 812 815 818 820 823 827 830 832 834 836 837 839 840 842 843 845 846 846 846 846 846 846 847 847 848 848 848 847 846 847
780 784 781 780 782 783 783 794 789 778 775 781 784 786 789 792 795 799 804 808 813 816 820 821 826 829 832 834 836 837 838 840 842 843 844 845 845 846 846 845 845 846 847 847 847 847 847 846 846
786 785 791 777 781 780 785 795 786 782 779 780 781 784 787 790 793 798 802 807 811 814 817 821 824 827 831 834 836 837 838 840 841 842 843 844 845 845 845 845 845 845 846 847 847 846 846 845 845
784 794 791 782 776 778 784 789 781 777 775 778 779 781 784 787 792 795 799 804 806 811 815 820 823 826 830 833 835 837 838 839 840 840 842 843 844 844 844 844 845 845 845 846 846 845 845 844 845
797 789 783 786 775 780 780 780 773 771 773 775 774 775 778 782 785 792 796 800 804 808 813 817 821 824 828 831 834 836 837 838 839 839 840 841 842 843 843 843 844 845 844 844 845 845 844 843 842
785 784 783 774 772 780 779 776 767 767 770 772 773 772 771 774 782 785 793 797 801 805 810 814 819 822 826 830 832 833 835 837 837 838 839 840 841 841 842 842 843 844 844 843 843 844 843 841 842
781 786 776 775 774 780 774 772 760 758 763 764 767 768 768 771 780 784 789 794 797 802 807 811 816 820 824 827 829 831 833 834 836 836 837 838 839 840 841 841 841 841 841 842 843 842 841 841 841
770 775 775 782 774 772 776 765 756 749 751 756 759 759 762 766 771 783 784 789 794 797 803 808 813 817 822 825 828 830 832 834 834 834 836 836 837 838 839 840 840 840 840 838 840 840 840 837 839
779 762 768 775 778 785 772 781 756 749 754 751 753 756 756 761 764 774 777 784 789 794 799 804 810 814 819 823 825 827 827 830 832 833 835 835 836 836 837 838 838 838 838 838 838 838 839 839 836
770 765 766 770 772 777 771 779 752 750 749 748 747 745 750 751 757 764 771 778 784 791 795 801 806 811 815 820 823 825 826 826 829 831 834 834 835 836 836 836 836 837 837 837 837 838 837 838 836
761 765 763 762 764 796 777 782 754 752 750 746 741 739 743 747 753 760 767 775 781 787 793 797 803 808 812 816 820 823 824 825 826 829 830 831 832 832 833 833 835 835 835 835 836 836 837 837 837
766 764 783 785 775 786 767 785 758 742 739 740 740 738 740 745 751 757 765 771 778 783 789 793 799 804 808 813 816 820 822 824 825 827 827 827 828 828 828 831 831 832 833 833 833 833 835 836 837
766 760 775 805 787 773 758 776 756 738 733 733 736 735 739 744 749 755 763 770 775 781 786 790 795 800 804 808 812 816 819 820 822 823 824 825 825 825 826 826 828 830 831 831 831 831 832 833 834
757 776 743 765 759 774 758 747 739 737 734 735 736 737 741 745 749 754 759 767 772 777 782 787 791 796 800 804 808 811 814 817 818 819 821 822 824 823 824 824 827 828 829 829 830 829 830 831 832
752 739 770 761 796 793 764 764 756 745 743 738 738 737 739 742 749 752 756 762 768 773 779 785 788 792 796 800 803 807 810 812 815 817 817 818 820 821 822 823 824 826 826 827 827 827 827 828 829
759 761 755 746 756 773 778 760 729 735 733 737 735 731 735 738 744 749 755 760 765 770 775 780 784 788 792 795 798 802 804 807 810 811 813 813 815 817 818 819 821 822 823 823 824 824 825 826 826
730 739 741 766 773 757 762 758 719 723 725 727 729 732 729 734 740 745 751 758 762 767 771 776 780 783 786 790 793 796 799 802 804 805 807 808 810 812 813 815 817 818 819 819 820 820 820 821 822